[[{"header":{"parameterUnit":"m.s-1","parameterCategory":1,"la1":30.2991,"la2":30.254,"lo1":-89.0895,"lo2":-89.0444,"dy":0.0017,"dx":0.0017,"nx":28,"ny":28,"refTime":"2025-12-27T09:00:00:Z","depth":0,"parameterNumber":2,"parameterNumberName":"U-component_of_WINDS"},"data":[0,0,0,0,0,0,0,0,0,0,0,0,0,0,0,0,0,0,0,0,0,0,0,0,0,0,0,0,0,0,0,0,0,0,0,0,0,0,0,0,0,0,0,0,0,0,0,0,0,0,0,0,0,0,0,0,0,0,0.2681,0.2682,0,0.2743,0.2744,0.2745,0.2749,0.2748,0.2747,0.2747,0.2809,0.2812,0.2814,0,0,0,0,0,0,0,0,0,0,0,0,0,0.2564,0.2566,0.2681,0.2682,0.2683,0.2743,0.2744,0.2745,0.2749,0.2748,0.2747,0.2746,0.2809,0.2811,0.2814,0,0,0,0,0,0,0,0,0,0,0,0,0,0.262,0.2567,0.2681,0.2692,0.2694,0.2743,0.2744,0.2745,0.2749,0.2748,0.2747,0.2746,0.2808,0.2811,0.2815,0.2857,0,0,0.2825,0.2827,0,0,0,0,0,0,0,0,0.2616,0.2624,0.269,0.2691,0.2693,0.2737,0.2726,0.2783,0.2749,0.2728,0.2747,0.2745,0.2786,0.2791,0.2805,0.286,0.2863,0.2826,0.2828,0.2829,0.283,0,0,0,0,0,0,0,0.2613,0.2621,0.2706,0.2691,0.2693,0.2693,0.27,0.2737,0.2762,0.273,0.273,0.2738,0.2787,0.2802,0.2807,0.2864,0.2825,0.2829,0.2831,0.2832,0.2955,0.2956,0,0,0,0,0,0,0.2607,0.2618,0.2704,0.2708,0.2652,0.2696,0.2704,0.2724,0.2762,0.2767,0.2738,0.2737,0.2797,0.2803,0.2809,0.2861,0.2829,0.2832,0.2834,0.2953,0.2955,0.2956,0,0,0,0,0,0,0.2604,0.2615,0.2701,0.2663,0.2674,0.2699,0.2722,0.2726,0.2741,0.2768,0.2773,0.2749,0.2796,0.2804,0.2845,0.2863,0.2834,0.2837,0.2952,0.2954,0.2955,0.2965,0,0,0,0,0,0,0.2601,0.2614,0.2631,0.2663,0.2676,0.2737,0.2723,0.2728,0.2747,0.2747,0.278,0.2784,0.2796,0.284,0.2848,0.2867,0.284,0.2951,0.2953,0.2955,0.2963,0.2967,0.297,0,0,0,0,0,0.2597,0.2631,0.2632,0.2642,0.2698,0.2738,0.2745,0.2758,0.2749,0.2766,0.2783,0.2783,0.2859,0.2844,0.2854,0.2874,0.295,0.2952,0.2955,0.2961,0.2966,0.297,0,0,0,0,0,0,0.26,0.2636,0.2637,0.2682,0.2707,0.2739,0.2761,0.2763,0.2791,0.2789,0.2803,0.2811,0.2851,0.2866,0.2848,0.2916,0.2903,0.2908,0.2905,0.2909,0.2913,0.2908,0.2843,0,0,0,0,0,0.2606,0.2636,0.2665,0.2703,0.2715,0.2735,0.2753,0.2761,0.2787,0.2798,0.2818,0.2843,0.2872,0.2891,0.292,0.2964,0.2971,0.2983,0.2986,0.2989,0.2993,0.3017,0.3022,0.2965,0.2965,0.2965,0,0,0.2619,0.2642,0.266,0.2704,0.2724,0.2754,0.2744,0.2777,0.2799,0.2802,0.2842,0.2858,0.2886,0.2929,0.2948,0.2943,0.301,0.2992,0.2994,0.2997,0.302,0.3025,0.303,0.2967,0.2966,0.2966,0,0,0.2657,0.2678,0.2711,0.2731,0.2762,0.2775,0.2782,0.2813,0.2824,0.2864,0.2867,0.2892,0.2943,0.2963,0.298,0.3024,0.3025,0.3033,0.3051,0.3073,0.3078,0.3082,0.3097,0.3103,0.3036,0.3037,0.3037,0,0.267,0.2716,0.2728,0.276,0.2779,0.2783,0.2816,0.2835,0.2873,0.2885,0.2878,0.2941,0.296,0.3007,0.3018,0.3031,0.304,0.303,0.3076,0.3081,0.3085,0.3099,0.3105,0.3037,0.3037,0.3037,0.3037,0,0.2729,0.276,0.2783,0.282,0.2841,0.2873,0.289,0.291,0.2915,0.2928,0.2968,0.2991,0.3024,0.3035,0.3041,0.3083,0.3078,0.3073,0.3061,0.3091,0.3105,0.311,0.3038,0.3038,0.3038,0.3038,0,0,0.2773,0.2815,0.2823,0.2839,0.2872,0.2896,0.2928,0.296,0.2976,0.3002,0.3028,0.307,0.3066,0.3085,0.3092,0.3112,0.3144,0.3105,0.3106,0.3111,0.3191,0.3194,0.3201,0.3145,0.3146,0.3147,0.3188,0,0.2815,0.2873,0.2884,0.2934,0.2963,0.2966,0.2993,0.3016,0.3029,0.3054,0.3068,0.3098,0.309,0.3101,0.3121,0.3136,0.3161,0.3133,0.3169,0.317,0.3163,0.3208,0.3213,0.3251,0.3194,0.3195,0.3195,0,0.2874,0.29,0.2953,0.298,0.2993,0.3018,0.3047,0.3072,0.3097,0.3104,0.3125,0.3129,0.3161,0.3146,0.319,0.3171,0.3186,0.3196,0.3198,0.3202,0.3185,0.3214,0.3264,0.3269,0.3204,0.3204,0.3203,0,0.29,0.2949,0.2987,0.3,0.3034,0.3051,0.3065,0.3089,0.3107,0.3133,0.3144,0.3173,0.3189,0.321,0.3222,0.321,0.3265,0.3251,0.3272,0.3271,0.3284,0.3283,0.3337,0.3293,0.3293,0.3292,0.3292,0,0.2947,0.2979,0.2999,0.3023,0.3058,0.307,0.3104,0.3118,0.3139,0.3164,0.3168,0.3191,0.3205,0.323,0.324,0.3274,0.3281,0.3288,0.329,0.3288,0.3287,0.3299,0.3296,0.3294,0.3294,0.3293,0.3293,0,0.2984,0.2999,0.304,0.3068,0.3075,0.31,0.3123,0.3145,0.3157,0.3189,0.3197,0.3216,0.3245,0.3259,0.3295,0.3301,0.334,0.334,0.3332,0.3333,0.3353,0.3351,0.3417,0.3425,0.3375,0.3375,0.3376,0,0.3013,0.3038,0.3068,0.3085,0.31,0.3128,0.3146,0.3158,0.3177,0.3206,0.3224,0.3253,0.3278,0.3325,0.3341,0.3368,0.3369,0.339,0.3374,0.337,0.337,0.3368,0.337,0.3394,0.3394,0.3395,0.3395,0,0.3064,0.3069,0.3096,0.3125,0.3146,0.3169,0.3192,0.3206,0.322,0.3241,0.3271,0.329,0.3327,0.3356,0.3384,0.3398,0.3399,0.34,0.3406,0.3405,0.3399,0.3402,0.3341,0.3398,0.3398,0.3398,0.3398,0.3398,0.3098,0.312,0.3144,0.3173,0.3191,0.3211,0.3233,0.3247,0.3273,0.3304,0.3309,0.3341,0.3363,0.3401,0.3416,0.344,0.3435,0.3444,0.3446,0.3449,0.345,0.3394,0.3445,0.3445,0.3445,0.3445,0.3445,0,0.3149,0.3164,0.319,0.3222,0.3244,0.3242,0.3267,0.3285,0.3314,0.3335,0.3358,0.3392,0.3419,0.3437,0.3465,0.3481,0.3482,0.3488,0.3487,0.349,0.3453,0.3445,0.3486,0.3486,0.3486,0.3486,0.3486,0.3486,0.3178,0.3214,0.3222,0.3267,0.3282,0.3314,0.3327,0.3346,0.3363,0.34,0.3423,0.3435,0.3454,0.3483,0.3507,0.3512,0.3522,0.3528,0.3532,0.3497,0.3493,0.3489,0.3481,0.353,0.353,0.3567,0.3567,0.3568]},{"header":{"parameterUnit":"m.s-1","parameterCategory":1,"la1":30.2991,"la2":30.254,"lo1":-89.0895,"lo2":-89.0444,"dy":0.0017,"dx":0.0017,"nx":28,"ny":28,"refTime":"2025-12-27T09:00:00:Z","depth":0,"parameterNumber":3,"parameterNumberName":"V-component_of_WINDS"},"data":[0,0,0,0,0,0,0,0,0,0,0,0,0,0,0,0,0,0,0,0,0,0,0,0,0,0,0,0,0,0,0,0,0,0,0,0,0,0,0,0,0,0,0,0,0,0,0,0,0,0,0,0,0,0,0,0,0,0,2.9122,2.9121,0,2.9033,2.9032,2.9031,2.8973,2.8973,2.8972,2.8972,2.8876,2.8874,2.8871,0,0,0,0,0,0,0,0,0,0,0,0,0,2.9235,2.9234,2.9122,2.9121,2.912,2.9034,2.9032,2.9031,2.8973,2.8973,2.8972,2.8972,2.8877,2.8874,2.8871,0,0,0,0,0,0,0,0,0,0,0,0,0,2.917,2.9233,2.9122,2.9081,2.9076,2.9034,2.9032,2.9031,2.8973,2.8973,2.8972,2.8972,2.8877,2.8874,2.8871,2.8861,0,0,2.8861,2.8859,0,0,0,0,0,0,0,0,2.9174,2.9166,2.9088,2.9084,2.9078,2.9014,2.9037,2.8974,2.8973,2.9012,2.8972,2.8971,2.8922,2.8915,2.8899,2.8857,2.8853,2.886,2.8858,2.8857,2.8856,0,0,0,0,0,0,0,2.9179,2.917,2.9087,2.9087,2.9081,2.9064,2.9055,2.9025,2.8971,2.9009,2.9004,2.8995,2.8919,2.8903,2.8896,2.8851,2.8861,2.8858,2.8856,2.8854,2.8794,2.8794,0,0,0,0,0,0,2.9191,2.9174,2.909,2.9084,2.9126,2.9063,2.9052,2.9035,2.8971,2.8961,2.8995,2.8992,2.8909,2.89,2.8893,2.8876,2.8857,2.8854,2.8852,2.8794,2.8794,2.8795,0,0,0,0,0,0,2.9193,2.9184,2.9093,2.9128,2.9115,2.9062,2.9043,2.9034,2.9017,2.8961,2.8951,2.8989,2.8908,2.8898,2.8869,2.8872,2.8852,2.8849,2.8793,2.8794,2.8794,2.8844,0,0,0,0,0,0,2.9197,2.9185,2.9182,2.9128,2.9114,2.9074,2.9043,2.9032,2.9012,2.9007,2.8952,2.8943,2.8907,2.8875,2.8866,2.8867,2.8847,2.8793,2.8793,2.8794,2.8842,2.8846,2.885,0,0,0,0,0,2.9201,2.9199,2.9183,2.9173,2.9109,2.9074,2.9065,2.9025,2.9013,2.9008,2.8972,2.8944,2.8873,2.8872,2.8862,2.8862,2.8792,2.8793,2.8794,2.884,2.8845,2.885,0,0,0,0,0,0,2.9253,2.9191,2.9172,2.9153,2.912,2.9064,2.9058,2.9032,2.9,2.8997,2.8947,2.8935,2.8912,2.8884,2.8884,2.8848,2.8829,2.8828,2.8868,2.8872,2.8876,2.8883,2.8844,0,0,0,0,0,2.9263,2.9241,2.9187,2.9176,2.916,2.9112,2.9095,2.9067,2.9029,2.9014,2.8976,2.8939,2.8908,2.8888,2.8857,2.8837,2.8823,2.8832,2.8836,2.884,2.8839,2.8825,2.8828,2.8797,2.8797,2.8797,0,0,2.9282,2.9246,2.9235,2.9185,2.9156,2.9132,2.91,2.9077,2.9058,2.901,2.8981,2.8952,2.8907,2.8883,2.887,2.8859,2.8844,2.8841,2.8844,2.8842,2.8826,2.8829,2.8832,2.8798,2.8798,2.8798,0,0,2.9305,2.9276,2.9263,2.9234,2.919,2.9158,2.9155,2.9103,2.9082,2.9053,2.9015,2.8991,2.894,2.8909,2.8886,2.8896,2.8868,2.8887,2.8908,2.8894,2.8897,2.8899,2.8901,2.8902,2.8886,2.8887,2.8887,0,2.9334,2.9299,2.9258,2.9237,2.9216,2.9172,2.9157,2.913,2.9078,2.9063,2.9051,2.8985,2.8951,2.8918,2.8921,2.8904,2.8897,2.8893,2.89,2.8902,2.8903,2.8904,2.8905,2.8889,2.8889,2.8889,2.8888,0,2.9336,2.9312,2.9306,2.9258,2.9236,2.9218,2.9172,2.9154,2.9128,2.9096,2.9065,2.9024,2.8983,2.8973,2.8946,2.8935,2.893,2.891,2.889,2.8909,2.8909,2.8909,2.8893,2.8892,2.8891,2.889,0,0,2.9391,2.932,2.9318,2.9295,2.9243,2.9223,2.9201,2.9162,2.9147,2.9112,2.9091,2.9048,2.9029,2.9003,2.8973,2.8961,2.897,2.8942,2.894,2.8948,2.8953,2.8968,2.897,2.8951,2.8951,2.8951,2.8957,0,2.9405,2.9367,2.9329,2.9303,2.9279,2.9237,2.9218,2.9183,2.9152,2.9126,2.9091,2.9061,2.9039,2.9023,2.901,2.8972,2.897,2.8971,2.893,2.8929,2.8943,2.897,2.8986,2.8994,2.8957,2.8957,2.8957,0,2.9417,2.9385,2.9358,2.9307,2.9295,2.928,2.924,2.9216,2.9174,2.9152,2.9124,2.9091,2.9064,2.9047,2.9008,2.9009,2.899,2.8968,2.8968,2.8962,2.8944,2.8965,2.8995,2.8996,2.8957,2.8957,2.8957,0,2.9458,2.9408,2.9385,2.9367,2.9307,2.9296,2.9271,2.9228,2.9207,2.9171,2.9156,2.9118,2.9097,2.9066,2.9023,2.9015,2.8988,2.8968,2.8968,2.8969,2.8964,2.8965,2.8991,2.8953,2.8953,2.8953,2.8953,0,2.9478,2.9463,2.9403,2.9389,2.9369,2.9324,2.9306,2.9276,2.9238,2.9216,2.9176,2.9155,2.91,2.9072,2.9038,2.901,2.9,2.898,2.8971,2.8984,2.8986,2.897,2.8968,2.8953,2.8953,2.8953,2.8953,0,2.9521,2.9481,2.9453,2.9398,2.9384,2.9372,2.9324,2.9307,2.9274,2.9246,2.9237,2.9184,2.9149,2.9103,2.9053,2.903,2.9005,2.8992,2.902,2.9015,2.9017,2.9017,2.9034,2.9033,2.8996,2.8997,2.8997,0,2.9537,2.9524,2.9469,2.9452,2.9427,2.94,2.9378,2.9332,2.9311,2.9261,2.925,2.9212,2.9179,2.9124,2.908,2.9041,2.9026,2.9034,2.9019,2.9032,2.9025,2.9026,2.9023,2.9038,2.9039,2.9039,2.9039,0,2.9568,2.9548,2.9519,2.9483,2.9458,2.9427,2.9394,2.9381,2.9328,2.9305,2.927,2.9244,2.9193,2.9155,2.911,2.908,2.905,2.9045,2.9042,2.9054,2.9071,2.9061,2.903,2.9044,2.9044,2.9043,2.9043,2.9043,2.9597,2.9583,2.9542,2.951,2.9481,2.945,2.9431,2.9396,2.9366,2.9323,2.9297,2.9261,2.9217,2.9154,2.9126,2.9096,2.9084,2.9082,2.9081,2.908,2.9084,2.9077,2.9087,2.9087,2.9087,2.9087,2.9087,0,2.9625,2.9596,2.9568,2.9523,2.9498,2.9473,2.9435,2.9414,2.9385,2.9347,2.9316,2.9273,2.9236,2.9189,2.9147,2.9132,2.9117,2.9123,2.9123,2.9117,2.9097,2.9103,2.9136,2.9136,2.9136,2.9136,2.9136,2.9136,2.9637,2.9612,2.9588,2.9547,2.9517,2.9484,2.9463,2.9434,2.9404,2.9359,2.9329,2.9299,2.9256,2.9211,2.9175,2.9162,2.9148,2.9158,2.914,2.9123,2.9118,2.9114,2.9119,2.9155,2.9155,2.9162,2.9162,2.9162]}]]